UMKA 1 (RS40S)

Last updated on Thu Oct 30 2025 00:03:10 GMT+0000 (Coordinated Universal Time)

1 57172U 23091G 25302.43728722 .00009537 00000+0 48100-3 0 9993 2 57172 97.5407 357.1061 0013353 197.3057 162.7723 15.17276045128979
UTC large
Height (km)
Speed (km/s)
/
Latitude / Longitude
Inclination (degrees)
Orbital Period (minutes)
Azimuth
Elevation
Range (km)
Doppler Factor

Next 0 passes for location: London (51.5072 / 0.1276)

Sorry there are no passes over London.